Project,Study,Ord_Occ,Event_Num,Cast_ID,Date_Time_UTC,Date_Time_PST,Lat_Dec,Lon_Dec,Sta_ID,Line,Sta,Depth,Pressure,PrQ,Temp1,Temp1Q,Temp2,Temp2Q,TempAve,Salt1,Salt1Q,Salt1_Corr,Salt2,Salt2Q,Salt2_Corr,SaltAve_Corr,Ox1,Ox1Q,Ox1_CruiseCorr,Ox1_StaCorr,Ox2,Ox2Q,Ox2_CruiseCorr,Ox2_StaCorr,OxAve_StaCorr,Ox1uM,Ox1uM_CruiseCorr,Ox1uM_StaCorr,Ox2uM,Ox2uM_CruiseCorr,Ox2uM_StaCorr,OxAveuM_StaCorr,FluorV,FluorQ,EstChl_CruiseCorr,EstChl_StaCorr,ISUSV,ISUSQ,EstNO3_CruiseCorr,EstNO3_StaCorr,SigThetaTS1,SigThetaTS1Q,SigThetaTS2,SigThetaTS2Q,BAT,XMiss,TransQ,pH,pHQ,SPAR,SPARQ,PAR,PARQ,PoT1,PoT2,DynHt,SVA,OxSat1,OxSat2,BTL_Depth,BTL_Temp,SaltB,OxB,OxBuM,Chl-a,Phaeo,NO3,NO2,NH4,PO4,SIL
CalCOFI,2007SR,026,27,2007_026u,18-Jul-2020 15:40:36,18-Jul-2020 07:40:36,32.91902,-118.93508,090.0 045.0,090.0,045.0,515.000,519.304,,6.2321,,6.2316,,6.2319,34.3033,,34.3035,34.3049,,34.3065,34.3050,0.3315,,0.3287,0.3576,1.8660,,0.5135,0.5627,0.4602,14.416,14.5608,30.1800,81.148,,37.8267,34.0034,0.0321,,,,-99.0,,-99.0,,26.9784,,26.9797,,0.6319,85.3880,,7.538,,8.2953E+02,,1.3352E-03,,6.1859,6.1854,0.8597,,4.802,27.031,515,6.232,34.3049,0.366,15.95,,,38.83,0.00,0.11,3.10,75.65
CalCOFI,2007SR,026,27,2007_026u,18-Jul-2020 15:40:56,18-Jul-2020 07:40:56,32.91900,-118.93506,090.0 045.0,090.0,045.0,514.000,518.294,,6.2310,,6.2312,,6.2311,34.3033,,34.3035,34.3047,,34.3063,34.3049,0.3321,,0.3293,0.3582,1.8522,,0.4806,0.5225,0.4404,14.442,14.5879,30.2002,80.545,,36.5202,33.3602,0.0318,,,,-99.0,,-99.0,,26.9785,,26.9796,,0.6319,85.3866,,7.538,,8.2496E+02,,2.2428E-03,,6.1849,6.1851,0.8606,,4.811,26.830,,,,,,,,,,,,
CalCOFI,2007SR,026,27,2007_026u,18-Jul-2020 15:41:04,18-Jul-2020 07:41:04,32.91901,-118.93506,090.0 045.0,090.0,045.0,513.000,517.285,,6.2287,,6.2291,,6.2289,34.3028,,34.3030,34.3044,,34.3060,34.3045,0.3320,,0.3292,0.3581,1.8415,,0.4550,0.4914,0.4248,14.435,14.5806,30.1948,80.080,,35.5128,32.8538,0.0322,,,,-99.0,,-99.0,,26.9784,,26.9796,,0.6313,85.4006,,7.538,,8.2626E+02,,2.7496E-03,,6.1827,6.1831,0.8608,,4.808,26.674,,,,,,,,,,,,
CalCOFI,2007SR,026,27,2007_026u,18-Jul-2020 15:41:05,18-Jul-2020 07:41:05,32.91902,-118.93508,090.0 045.0,090.0,045.0,512.000,516.275,,6.2298,,6.2301,,6.2300,34.3025,,34.3027,34.3038,,34.3054,34.3041,0.3388,,0.3363,0.3650,1.8431,,0.4588,0.4961,0.4306,14.733,14.8917,30.4266,80.150,,35.6644,33.0455,0.0315,,,,-99.0,,-99.0,,26.9780,,26.9790,,0.6316,85.3946,,7.538,,8.2646E+02,,2.1302E-03,,6.1840,6.1842,0.8608,,4.907,26.697,,,,,,,,,,,,
CalCOFI,2007SR,026,27,2007_026u,18-Jul-2020 15:41:06,18-Jul-2020 07:41:06,32.91902,-118.93508,090.0 045.0,090.0,045.0,511.000,515.266,,6.2353,,6.2352,,6.2353,34.3018,,34.3020,34.3032,,34.3048,34.3034,0.3387,,0.3362,0.3649,1.8435,,0.4598,0.4973,0.4311,14.727,14.8854,30.4219,80.170,,35.7078,33.0649,0.0323,,,,-99.0,,-99.0,,26.9767,,26.9779,,0.6317,85.3922,,7.538,,8.2645E+02,,1.1793E-03,,6.1895,6.1893,0.8608,,4.906,26.707,,,,,,,,,,,,
CalCOFI,2007SR,026,27,2007_026u,18-Jul-2020 15:41:06,18-Jul-2020 07:41:06,32.91902,-118.93507,090.0 045.0,090.0,045.0,510.000,514.256,,6.2387,,6.2388,,6.2388,34.3014,,34.3016,34.3027,,34.3043,34.3030,0.3352,,0.3326,0.3614,1.8416,,0.4553,0.4917,0.4266,14.578,14.7299,30.3060,80.084,,35.5214,32.9137,0.0325,,,,-99.0,,-99.0,,26.9760,,26.9770,,0.6319,85.3868,,7.538,,8.2645E+02,,3.2066E-04,,6.1929,6.1931,0.8608,,4.857,26.680,,,,,,,,,,,,
CalCOFI,2007SR,026,27,2007_026u,18-Jul-2020 15:41:07,18-Jul-2020 07:41:07,32.91901,-118.93506,090.0 045.0,090.0,045.0,509.000,513.246,,6.2394,,6.2397,,6.2396,34.3014,,34.3016,34.3025,,34.3041,34.3029,0.3352,,0.3326,0.3614,1.8408,,0.4533,0.4894,0.4254,14.577,14.7288,30.3052,80.049,,35.4456,32.8754,0.0322,,,,-99.0,,-99.0,,26.9759,,26.9767,,0.6320,85.3855,,7.538,,8.2645E+02,,1.3850E-04,,6.1938,6.1940,0.8608,,4.856,26.669,,,,,,,,,,,,
CalCOFI,2007SR,026,27,2007_026u,18-Jul-2020 15:41:08,18-Jul-2020 07:41:08,32.91900,-118.93506,090.0 045.0,090.0,045.0,508.000,512.237,,6.2405,,6.2407,,6.2406,34.3012,,34.3014,34.3024,,34.3040,34.3027,0.3351,,0.3324,0.3613,1.8438,,0.4605,0.4981,0.4297,14.574,14.7257,30.3029,80.180,,35.7294,33.0162,0.0330,,,,-99.0,,-99.0,,26.9755,,26.9765,,0.6311,85.4045,,7.538,,8.2534E+02,,8.1588E-03,,6.1949,6.1951,0.8608,,4.856,26.714,,,,,,,,,,,,
CalCOFI,2007SR,026,27,2007_026u,18-Jul-2020 15:41:09,18-Jul-2020 07:41:09,32.91900,-118.93506,090.0 045.0,090.0,045.0,507.000,511.227,,6.2420,,6.2422,,6.2421,34.3008,,34.3010,34.3021,,34.3037,34.3024,0.3351,,0.3324,0.3613,1.8388,,0.4486,0.4836,0.4225,14.572,14.7236,30.3013,79.965,,35.2636,32.7825,0.0315,,,,-99.0,,-99.0,,26.9751,,26.9761,,0.6313,85.3999,,7.538,,8.2457E+02,,5.0564E-03,,6.1965,6.1967,0.8608,,4.855,26.643,,,,,,,,,,,,
CalCOFI,2007SR,026,27,2007_026u,18-Jul-2020 15:41:10,18-Jul-2020 07:41:10,32.91900,-118.93506,090.0 045.0,090.0,045.0,506.000,510.218,,6.2459,,6.2457,,6.2458,34.3005,,34.3007,34.3021,,34.3037,34.3022,0.3351,,0.3324,0.3613,1.8361,,0.4421,0.4757,0.4185,14.574,14.7257,30.3029,79.846,,35.0058,32.6544,0.0315,,,,-99.0,,-99.0,,26.9743,,26.9756,,0.6310,85.4070,,7.537,,8.2461E+02,,4.0628E-04,,6.2005,6.2003,0.8608,,4.856,26.605,,,,,,,,,,,,
CalCOFI,2007SR,026,27,2007_026u,18-Jul-2020 15:41:12,18-Jul-2020 07:41:12,32.91901,-118.93506,090.0 045.0,090.0,045.0,505.000,509.208,,6.2478,,6.2481,,6.2480,34.2999,,34.3001,34.3013,,34.3029,34.3015,0.3395,,0.3370,0.3657,1.8337,,0.4364,0.4688,0.4173,14.763,14.9230,30.4499,79.743,,34.7826,32.6163,0.0322,,,,-99.0,,-99.0,,26.9736,,26.9747,,0.6313,85.3996,,7.537,,8.2647E+02,,1.5676E-03,,6.2025,6.2028,0.8608,,4.919,26.572,,,,,,,,,,,,
CalCOFI,2007SR,026,27,2007_026u,18-Jul-2020 15:41:13,18-Jul-2020 07:41:13,32.91902,-118.93506,090.0 045.0,090.0,045.0,504.000,508.199,,6.2498,,6.2500,,6.2499,34.2998,,34.3000,34.3010,,34.3026,34.3013,0.3418,,0.3394,0.3681,1.8361,,0.4421,0.4757,0.4219,14.865,15.0295,30.5293,79.845,,35.0036,32.7665,0.0324,,,,-99.0,,-99.0,,26.9732,,26.9741,,0.6312,85.4025,,7.537,,8.2645E+02,,3.5247E-05,,6.2046,6.2048,0.8608,,4.953,26.607,,,,,,,,,,,,
CalCOFI,2007SR,026,27,2007_026u,18-Jul-2020 15:41:14,18-Jul-2020 07:41:14,32.91902,-118.93507,090.0 045.0,090.0,045.0,503.000,507.189,,6.2551,,6.2547,,6.2549,34.2998,,34.3000,34.3011,,34.3027,34.3014,0.3390,,0.3365,0.3652,1.8353,,0.4402,0.4734,0.4193,14.741,14.9000,30.4328,79.810,,34.9278,32.6803,0.0318,,,,-99.0,,-99.0,,26.9725,,26.9736,,0.6315,85.3963,,7.537,,8.2645E+02,,-1.290E-07,,6.2099,6.2095,0.8608,,4.913,26.599,,,,,,,,,,,,
CalCOFI,2007SR,026,27,2007_026u,18-Jul-2020 15:41:15,18-Jul-2020 07:41:15,32.91902,-118.93508,090.0 045.0,090.0,045.0,502.000,506.180,,6.2728,,6.2723,,6.2726,34.3003,,34.3005,34.3021,,34.3037,34.3021,0.3382,,0.3357,0.3644,1.8293,,0.4259,0.4560,0.4102,14.706,14.8635,30.4056,79.553,,34.3710,32.3883,0.0307,,,,0.0002,,0.0000,,26.9706,,26.9721,,0.6320,85.3855,,7.537,,8.2645E+02,,5.8060E-05,,6.2277,6.2272,0.8608,,4.903,26.524,,,,,,,,,,,,
CalCOFI,2007SR,026,27,2007_026u,18-Jul-2020 15:41:16,18-Jul-2020 07:41:16,32.91902,-118.93506,090.0 045.0,090.0,045.0,501.000,505.170,,6.2842,,6.2848,,6.2845,34.2998,,34.3000,34.3011,,34.3027,34.3014,0.3389,,0.3364,0.3651,1.8215,,0.4073,0.4333,0.3992,14.738,14.8969,30.4305,79.213,,33.6343,32.0324,0.0312,,,,0.0022,,0.0000,,26.9688,,26.9698,,0.6320,85.3855,,7.537,,8.2645E+02,,3.2690E-07,,6.2391,6.2397,0.8608,,4.915,26.418,,,,,,,,,,,,
CalCOFI,2007SR,026,27,2007_026u,18-Jul-2020 15:41:17,18-Jul-2020 07:41:17,32.91901,-118.93506,090.0 045.0,090.0,045.0,500.000,504.160,,6.2902,,6.2903,,6.2903,34.2997,,34.2999,34.3010,,34.3026,34.3013,0.3442,,0.3420,0.3705,1.8273,,0.4211,0.4502,0.4104,14.966,15.1349,30.6079,79.464,,34.1781,32.3930,0.0323,,,,0.0065,,0.0000,,26.9679,,26.9690,,0.6325,85.3755,,7.537,,8.2645E+02,,1.0000E-12,,6.2452,6.2453,0.8608,,4.992,26.505,,,,,,,,,,,,
CalCOFI,2007SR,026,27,2007_026u,18-Jul-2020 15:41:18,18-Jul-2020 07:41:18,32.91900,-118.93506,090.0 045.0,090.0,045.0,499.000,503.151,,6.2941,,6.2942,,6.2942,34.2997,,34.2999,34.3011,,34.3027,34.3013,0.3444,,0.3422,0.3707,1.8278,,0.4223,0.4516,0.4112,14.976,15.1453,30.6157,79.488,,34.2301,32.4229,0.0320,,,,0.0133,,0.0000,,26.9674,,26.9685,,0.6324,85.3769,,7.537,,8.2645E+02,,1.0000E-12,,6.2492,6.2492,0.8608,,4.996,26.515,,,,,,,,,,,,
CalCOFI,2007SR,026,27,2007_026u,18-Jul-2020 15:41:18,18-Jul-2020 07:41:18,32.91900,-118.93506,090.0 045.0,090.0,045.0,498.000,502.141,,6.2969,,6.2970,,6.2970,34.2999,,34.3001,34.3013,,34.3029,34.3015,0.3420,,0.3397,0.3683,1.8275,,0.4216,0.4507,0.4095,14.871,15.0357,30.5340,79.472,,34.1955,32.3648,0.0327,,,,0.0237,,0.0000,,26.9672,,26.9683,,0.6320,85.3852,,7.537,,8.2498E+02,,1.0000E-12,,6.2520,6.2522,0.8608,,4.961,26.512,,,,,,,,,,,,
CalCOFI,2007SR,026,27,2007_026u,18-Jul-2020 15:41:20,18-Jul-2020 07:41:20,32.91900,-118.93506,090.0 045.0,090.0,045.0,497.000,501.132,,6.3061,,6.3065,,6.3063,34.2999,,34.3001,34.3015,,34.3031,34.3016,0.3424,,0.3401,0.3687,1.8268,,0.4199,0.4487,0.4087,14.892,15.0577,30.5503,79.442,,34.1305,32.3404,0.0324,,,,0.0401,,0.0000,,26.9660,,26.9672,,0.6320,85.3855,,7.537,,8.2581E+02,,1.0000E-12,,6.2613,6.2617,0.8608,,4.969,26.508,,,,,,,,,,,,
CalCOFI,2007SR,026,27,2007_026u,18-Jul-2020 15:41:21,18-Jul-2020 07:41:21,32.91900,-118.93506,090.0 045.0,090.0,045.0,496.000,500.122,,6.3115,,6.3126,,6.3121,34.2998,,34.3000,34.3013,,34.3029,34.3015,0.3415,,0.3391,0.3678,1.8263,,0.4187,0.4473,0.4076,14.850,15.0138,30.5176,79.419,,34.0806,32.2991,0.0324,,,,0.0631,,0.0000,,26.9652,,26.9662,,0.6320,85.3855,,7.537,,8.2646E+02,,1.0000E-12,,6.2667,6.2679,0.8608,,4.956,26.504,,,,,,,,,,,,
CalCOFI,2007SR,026,27,2007_026u,18-Jul-2020 15:41:22,18-Jul-2020 07:41:22,32.91902,-118.93506,090.0 045.0,090.0,045.0,495.000,499.113,,6.3167,,6.3173,,6.3170,34.3000,,34.3002,34.3014,,34.3030,34.3016,0.3454,,0.3432,0.3718,1.8258,,0.4175,0.4458,0.4088,15.020,15.1913,30.6499,79.399,,34.0373,32.3436,0.0323,,,,0.0853,,0.0000,,26.9647,,26.9657,,0.6323,85.3786,,7.537,,8.2645E+02,,1.0000E-12,,6.2720,6.2727,0.8608,,5.013,26.500,,,,,,,,,,,,
CalCOFI,2007SR,026,27,2007_026u,18-Jul-2020 15:41:23,18-Jul-2020 07:41:23,32.91902,-118.93507,090.0 045.0,090.0,045.0,494.000,498.103,,6.3243,,6.3246,,6.3245,34.2993,,34.2995,34.3007,,34.3023,34.3009,0.3493,,0.3473,0.3757,1.8218,,0.4080,0.4342,0.4050,15.190,15.3687,30.7821,79.227,,33.6647,32.2234,0.0313,,,,0.1042,,0.0000,,26.9631,,26.9642,,0.6320,85.3854,,7.537,,8.2645E+02,,1.0000E-12,,6.2797,6.2800,0.8608,,5.071,26.447,,,,,,,,,,,,
CalCOFI,2007SR,026,27,2007_026u,18-Jul-2020 15:41:24,18-Jul-2020 07:41:24,32.91902,-118.93508,090.0 045.0,090.0,045.0,493.000,497.094,,6.3273,,6.3275,,6.3274,34.2989,,34.2991,34.3002,,34.3018,34.3005,0.3468,,0.3447,0.3732,1.8162,,0.3946,0.4179,0.3956,15.081,15.2550,30.6973,78.981,,33.1317,31.9145,0.0326,,,,0.1205,,0.0000,,26.9624,,26.9634,,0.6322,85.3808,,7.537,,8.2645E+02,,1.0000E-12,,6.2828,6.2830,0.8608,,5.035,26.366,,,,,,,,,,,,
CalCOFI,2007SR,026,27,2007_026u,18-Jul-2020 15:41:25,18-Jul-2020 07:41:25,32.91902,-118.93507,090.0 045.0,090.0,045.0,492.000,496.084,,6.3289,,6.3292,,6.3291,34.2990,,34.2992,34.3002,,34.3018,34.3005,0.3516,,0.3497,0.3781,1.8268,,0.4199,0.4487,0.4134,15.291,15.4742,30.8607,79.443,,34.1326,32.4967,0.0328,,,,0.1346,,0.0000,,26.9622,,26.9632,,0.6323,85.3799,,7.537,,8.2654E+02,,1.0000E-12,,6.2845,6.2848,0.8608,,5.105,26.522,,,,,,,,,,,,
CalCOFI,2007SR,026,27,2007_026u,18-Jul-2020 15:41:26,18-Jul-2020 07:41:26,32.91900,-118.93506,090.0 045.0,090.0,045.0,491.000,495.075,,6.3384,,6.3396,,6.3390,34.2985,,34.2987,34.2998,,34.3014,34.3001,0.3521,,0.3502,0.3786,1.8215,,0.4073,0.4333,0.4060,15.314,15.4982,30.8786,79.213,,33.6343,32.2565,0.0318,,,,0.1470,,0.0000,,26.9606,,26.9615,,0.6320,85.3845,,7.537,,8.2645E+02,,1.0000E-12,,6.2940,6.2952,0.8608,,5.114,26.451,,,,,,,,,,,,
CalCOFI,2007SR,026,27,2007_026u,18-Jul-2020 15:41:27,18-Jul-2020 07:41:27,32.91900,-118.93506,090.0 045.0,090.0,045.0,490.000,494.065,,6.3529,,6.3536,,6.3533,34.2971,,34.2973,34.2985,,34.3001,34.2987,0.3479,,0.3458,0.3743,1.8130,,0.3870,0.4086,0.3915,15.130,15.3061,30.7355,78.842,,32.8305,31.7830,0.0317,,,,0.1572,,0.0000,,26.9577,,26.9586,,0.6334,85.3548,,7.537,,8.2645E+02,,1.0000E-12,,6.3086,6.3093,0.8608,,5.054,26.336,,,,,,,,,,,,
CalCOFI,2007SR,026,27,2007_026u,18-Jul-2020 15:41:28,18-Jul-2020 07:41:28,32.91900,-118.93506,090.0 045.0,090.0,045.0,489.000,493.056,,6.3590,,6.3594,,6.3592,34.2965,,34.2967,34.2978,,34.2994,34.2981,0.3537,,0.3519,0.3802,1.8177,,0.3982,0.4223,0.4013,15.383,15.5702,30.9323,79.048,,33.2768,32.1046,0.0331,,,,0.1647,,0.0000,,26.9564,,26.9573,,0.6326,85.3725,,7.537,,8.2645E+02,,1.0000E-12,,6.3148,6.3151,0.8608,,5.139,26.408,,,,,,,,,,,,
CalCOFI,2007SR,026,27,2007_026u,18-Jul-2020 15:41:29,18-Jul-2020 07:41:29,32.91900,-118.93506,090.0 045.0,090.0,045.0,488.000,492.046,,6.3608,,6.3614,,6.3611,34.2964,,34.2966,34.2977,,34.2993,34.2980,0.3542,,0.3524,0.3807,1.8163,,0.3949,0.4182,0.3995,15.403,15.5911,30.9479,78.986,,33.1425,32.0452,0.0328,,,,0.1681,,0.0000,,26.9560,,26.9570,,0.6325,85.3741,,7.537,,8.2645E+02,,1.0000E-12,,6.3167,6.3172,0.8608,,5.146,26.388,,,,,,,,,,,,
CalCOFI,2007SR,026,27,2007_026u,18-Jul-2020 15:41:30,18-Jul-2020 07:41:30,32.91900,-118.93506,090.0 045.0,090.0,045.0,487.000,491.037,,6.3620,,6.3621,,6.3621,34.2963,,34.2965,34.2975,,34.2991,34.2978,0.3513,,0.3494,0.3778,1.8168,,0.3960,0.4196,0.3987,15.276,15.4585,30.8491,79.009,,33.1923,32.0207,0.0328,,,,0.1660,,0.0000,,26.9558,,26.9568,,0.6350,85.3204,,7.537,,8.2731E+02,,1.0000E-12,,6.3179,6.3180,0.8608,,5.104,26.396,,,,,,,,,,,,
CalCOFI,2007SR,026,27,2007_026u,18-Jul-2020 15:41:31,18-Jul-2020 07:41:31,32.91900,-118.93507,090.0 045.0,090.0,045.0,486.000,490.027,,6.3624,,6.3626,,6.3625,34.2962,,34.2964,34.2974,,34.2990,34.2977,0.3523,,0.3504,0.3788,1.8166,,0.3956,0.4191,0.3990,15.322,15.5065,30.8848,78.998,,33.1685,32.0267,0.0317,,,,0.1587,,0.0000,,26.9557,,26.9565,,0.6327,85.3715,,7.537,,8.2836E+02,,1.0000E-12,,6.3184,6.3186,0.8608,,5.119,26.393,,,,,,,,,,,,
CalCOFI,2007SR,026,27,2007_026u,18-Jul-2020 15:41:32,18-Jul-2020 07:41:32,32.91900,-118.93508,090.0 045.0,090.0,045.0,485.000,489.018,,6.3646,,6.3654,,6.3650,34.2962,,34.2964,34.2974,,34.2990,34.2977,0.3599,,0.3584,0.3866,1.8162,,0.3946,0.4179,0.4023,15.651,15.8500,31.1408,78.982,,33.1338,32.1373,0.0313,,,,0.1478,,0.0000,,26.9553,,26.9562,,0.6328,85.3688,,7.537,,8.2836E+02,,1.0000E-12,,6.3207,6.3215,0.8608,,5.229,26.389,,,,,,,,,,,,
CalCOFI,2007SR,026,27,2007_026u,18-Jul-2020 15:41:33,18-Jul-2020 07:41:33,32.91900,-118.93508,090.0 045.0,090.0,045.0,484.000,488.008,,6.3717,,6.3722,,6.3720,34.2958,,34.2960,34.2971,,34.2987,34.2974,0.3575,,0.3559,0.3841,1.8156,,0.3932,0.4161,0.4001,15.548,15.7425,31.0607,78.958,,33.0818,32.0713,0.0321,,,,0.1353,,0.0000,,26.9541,,26.9550,,0.6330,85.3643,,7.537,,8.2836E+02,,1.0000E-12,,6.3279,6.3284,0.8608,,5.196,26.385,,,,,,,,,,,,
CalCOFI,2007SR,026,27,2007_026u,18-Jul-2020 15:41:34,18-Jul-2020 07:41:34,32.91900,-118.93506,090.0 045.0,090.0,045.0,483.000,486.999,,6.3819,,6.3822,,6.3821,34.2950,,34.2952,34.2962,,34.2978,34.2965,0.3567,,0.3550,0.3833,1.8149,,0.3915,0.4141,0.3987,15.513,15.7059,31.0334,78.927,,33.0147,32.0241,0.0317,,,,0.1223,,0.0000,,26.9521,,26.9530,,0.6326,85.3719,,7.537,,8.2836E+02,,1.0000E-12,,6.3382,6.3384,0.8608,,5.185,26.381,,,,,,,,,,,,
CalCOFI,2007SR,026,27,2007_026u,18-Jul-2020 15:41:35,18-Jul-2020 07:41:35,32.91900,-118.93506,090.0 045.0,090.0,045.0,482.000,485.989,,6.3874,,6.3875,,6.3875,34.2945,,34.2947,34.2958,,34.2974,34.2961,0.3619,,0.3604,0.3886,1.8145,,0.3906,0.4129,0.4008,15.741,15.9439,31.2108,78.907,,32.9713,32.0911,0.0327,,,,0.1079,,0.0000,,26.9510,,26.9520,,0.6331,85.3621,,7.537,,8.2836E+02,,1.0000E-12,,6.3437,6.3438,0.8608,,5.262,26.377,,,,,,,,,,,,
CalCOFI,2007SR,026,27,2007_026u,18-Jul-2020 15:41:36,18-Jul-2020 07:41:36,32.91900,-118.93506,090.0 045.0,090.0,045.0,481.000,484.980,,6.3915,,6.3919,,6.3917,34.2940,,34.2942,34.2953,,34.2969,34.2956,0.3613,,0.3598,0.3880,1.8140,,0.3894,0.4115,0.3998,15.712,15.9137,31.1883,78.888,,32.9302,32.0593,0.0319,,,,0.0911,,0.0000,,26.9500,,26.9510,,0.6332,85.3609,,7.537,,8.2836E+02,,1.0000E-12,,6.3479,6.3483,0.8608,,5.253,26.373,,,,,,,,,,,,
CalCOFI,2007SR,026,27,2007_026u,18-Jul-2020 15:41:37,18-Jul-2020 07:41:37,32.91900,-118.93506,090.0 045.0,090.0,045.0,480.000,483.970,,6.3952,,6.3960,,6.3956,34.2938,,34.2940,34.2949,,34.2965,34.2953,0.3606,,0.3591,0.3873,1.8136,,0.3884,0.4103,0.3988,15.681,15.8813,31.1641,78.869,,32.8890,32.0266,0.0313,,,,0.0723,,0.0000,,26.9494,,26.9502,,0.6329,85.3661,,7.537,,8.2836E+02,,1.0000E-12,,6.3517,6.3525,0.8608,,5.243,26.370,,,,,,,,,,,,
CalCOFI,2007SR,026,27,2007_026u,18-Jul-2020 15:41:38,18-Jul-2020 07:41:38,32.91900,-118.93506,090.0 045.0,090.0,045.0,479.000,482.961,,6.4003,,6.3999,,6.4001,34.2935,,34.2937,34.2947,,34.2963,34.2950,0.3663,,0.3650,0.3931,1.8132,,0.3875,0.4092,0.4012,15.931,16.1423,31.3586,78.851,,32.8500,32.1043,0.0324,,,,0.0525,,0.0000,,26.9485,,26.9495,,0.6334,85.3561,,7.537,,8.2836E+02,,1.0000E-12,,6.3568,6.3564,0.8608,,5.327,26.366,,,,,,,,,,,,
CalCOFI,2007SR,026,27,2007_026u,18-Jul-2020 15:41:39,18-Jul-2020 07:41:39,32.91900,-118.93506,090.0 045.0,090.0,045.0,478.000,481.952,,6.4108,,6.4119,,6.4114,34.2934,,34.2936,34.2948,,34.2964,34.2950,0.3652,,0.3639,0.3920,1.8123,,0.3853,0.4066,0.3993,15.882,16.0911,31.3205,78.816,,32.7742,32.0474,0.0318,,,,0.0333,,0.0000,,26.9471,,26.9480,,0.6352,85.3171,,7.538,,8.2836E+02,,1.0000E-12,,6.3674,6.3685,0.8608,,5.312,26.362,,,,,,,,,,,,
CalCOFI,2007SR,026,27,2007_026u,18-Jul-2020 15:41:40,18-Jul-2020 07:41:40,32.91900,-118.93506,090.0 045.0,090.0,045.0,477.000,480.942,,6.4185,,6.4188,,6.4187,34.2921,,34.2923,34.2932,,34.2948,34.2936,0.3727,,0.3717,0.3996,1.8118,,0.3841,0.4051,0.4024,16.208,16.4314,31.5742,78.792,,32.7222,32.1482,0.0320,,,,0.0177,,0.0000,,26.9450,,26.9459,,0.6328,85.3682,,7.537,,8.2836E+02,,1.0000E-12,,6.3752,6.3755,0.8608,,5.422,26.358,,,,,,,,,,,,
CalCOFI,2007SR,026,27,2007_026u,18-Jul-2020 15:41:41,18-Jul-2020 07:41:41,32.91900,-118.93506,090.0 045.0,090.0,045.0,476.000,479.933,,6.4189,,6.4192,,6.4191,34.2913,,34.2915,34.2924,,34.2940,34.2928,0.3742,,0.3733,0.4011,1.8116,,0.3836,0.4045,0.4028,16.275,16.5014,31.6263,78.782,,32.7005,32.1634,0.0317,,,,0.0072,,0.0000,,26.9443,,26.9452,,0.6330,85.3646,,7.538,,8.2836E+02,,1.0000E-12,,6.3757,6.3760,0.8608,,5.444,26.354,,,,,,,,,,,,
CalCOFI,2007SR,026,27,2007_026u,18-Jul-2020 15:41:42,18-Jul-2020 07:41:42,32.91900,-118.93508,090.0 045.0,090.0,045.0,475.000,478.923,,6.4250,,6.4256,,6.4253,34.2903,,34.2905,34.2917,,34.2933,34.2919,0.3761,,0.3753,0.4031,1.8110,,0.3822,0.4028,0.4030,16.358,16.5880,31.6909,78.759,,32.6507,32.1708,0.0319,,,,0.0017,,0.0000,,26.9427,,26.9437,,0.6325,85.3757,,7.538,,8.2836E+02,,1.0000E-12,,6.3819,6.3824,0.8608,,5.473,26.350,,,,,,,,,,,,
CalCOFI,2007SR,026,27,2007_026u,18-Jul-2020 15:41:43,18-Jul-2020 07:41:43,32.91900,-118.93508,090.0 045.0,090.0,045.0,474.000,477.914,,6.4347,,6.4350,,6.4349,34.2891,,34.2893,34.2904,,34.2920,34.2907,0.3775,,0.3767,0.4045,1.8104,,0.3808,0.4010,0.4028,16.419,16.6517,31.7383,78.730,,32.5879,32.1631,0.0316,,,,-99.0,,-99.0,,26.9405,,26.9415,,0.6331,85.3620,,7.539,,8.2836E+02,,4.6334E-05,,6.3916,6.3919,0.8608,,5.494,26.346,,,,,,,,,,,,
CalCOFI,2007SR,026,27,2007_026u,18-Jul-2020 15:41:44,18-Jul-2020 07:41:44,32.91900,-118.93507,090.0 045.0,090.0,045.0,473.000,476.905,,6.4394,,6.4402,,6.4398,34.2893,,34.2895,34.2904,,34.2920,34.2908,0.3808,,0.3802,0.4079,1.8099,,0.3796,0.3996,0.4038,16.562,16.8010,31.8496,78.709,,32.5424,32.1960,0.0309,,,,-99.0,,-99.0,,26.9400,,26.9408,,0.6334,85.3545,,7.539,,8.2836E+02,,-2.410E-07,,6.3964,6.3972,0.8608,,5.543,26.342,,,,,,,,,,,,
CalCOFI,2007SR,026,27,2007_026u,18-Jul-2020 15:41:45,18-Jul-2020 07:41:45,32.91900,-118.93506,090.0 045.0,090.0,045.0,472.000,475.895,,6.4515,,6.4520,,6.4518,34.2889,,34.2891,34.2907,,34.2923,34.2907,0.3800,,0.3794,0.4071,1.8091,,0.3777,0.3973,0.4022,16.525,16.7623,31.8208,78.674,,32.4665,32.1437,0.0313,,,,-99.0,,-99.0,,26.9382,,26.9395,,0.6326,85.3720,,7.538,,8.2836E+02,,1.0000E-12,,6.4085,6.4090,0.8608,,5.532,26.338,,,,,,,,,,,,
CalCOFI,2007SR,026,27,2007_026u,18-Jul-2020 15:41:46,18-Jul-2020 07:41:46,32.91900,-118.93506,090.0 045.0,090.0,045.0,471.000,474.886,,6.4608,,6.4616,,6.4612,34.2879,,34.2881,34.2892,,34.2908,34.2895,0.3844,,0.3840,0.4115,1.8084,,0.3760,0.3952,0.4034,16.717,16.9628,31.9702,78.646,,32.4059,32.1881,0.0314,,,,-99.0,,-99.0,,26.9361,,26.9371,,0.6331,85.3620,,7.540,,8.2836E+02,,1.0000E-12,,6.4179,6.4186,0.8608,,5.597,26.333,,,,,,,,,,,,
CalCOFI,2007SR,026,27,2007_026u,18-Jul-2020 15:41:47,18-Jul-2020 07:41:47,32.91900,-118.93506,090.0 045.0,090.0,045.0,470.000,473.876,,6.4665,,6.4667,,6.4666,34.2865,,34.2867,34.2876,,34.2892,34.2880,0.3852,,0.3848,0.4124,1.8080,,0.3750,0.3941,0.4033,16.750,16.9972,31.9958,78.626,,32.3625,32.1792,0.0321,,,,-99.0,,-99.0,,26.9342,,26.9351,,0.6334,85.3561,,7.541,,8.2836E+02,,1.0000E-12,,6.4237,6.4239,0.8608,,5.609,26.330,,,,,,,,,,,,
CalCOFI,2007SR,026,27,2007_026u,18-Jul-2020 15:41:48,18-Jul-2020 07:41:48,32.91900,-118.93506,090.0 045.0,090.0,045.0,469.000,472.867,,6.4679,,6.4679,,6.4679,34.2863,,34.2865,34.2875,,34.2891,34.2878,0.3860,,0.3856,0.4132,1.8077,,0.3743,0.3932,0.4032,16.788,17.0369,32.0254,78.613,,32.3344,32.1799,0.0307,,,,-99.0,,-99.0,,26.9339,,26.9348,,0.6328,85.3690,,7.540,,8.2836E+02,,1.0000E-12,,6.4252,6.4252,0.8608,,5.622,26.326,,,,,,,,,,,,
CalCOFI,2007SR,026,27,2007_026u,18-Jul-2020 15:41:49,18-Jul-2020 07:41:49,32.91900,-118.93506,090.0 045.0,090.0,045.0,468.000,471.857,,6.4694,,6.4694,,6.4694,34.2862,,34.2864,34.2876,,34.2892,34.2878,0.3824,,0.3819,0.4095,1.8074,,0.3736,0.3923,0.4009,16.629,16.8709,31.9017,78.600,,32.3062,32.1040,0.0325,,,,-99.0,,-99.0,,26.9336,,26.9347,,0.6324,85.3774,,7.541,,8.2871E+02,,1.0000E-12,,6.4268,6.4267,0.8608,,5.569,26.323,,,,,,,,,,,,
CalCOFI,2007SR,026,27,2007_026u,18-Jul-2020 15:41:51,18-Jul-2020 07:41:51,32.91900,-118.93507,090.0 045.0,090.0,045.0,467.000,470.848,,6.4727,,6.4728,,6.4728,34.2864,,34.2866,34.2878,,34.2894,34.2880,0.3822,,0.3817,0.4093,1.8070,,0.3727,0.3911,0.4002,16.623,16.8646,31.8970,78.582,,32.2672,32.0821,0.0320,,,,-99.0,,-99.0,,26.9333,,26.9344,,0.6323,85.3782,,7.541,,8.3031E+02,,1.0000E-12,,6.4301,6.4302,0.8608,,5.567,26.319,,,,,,,,,,,,
CalCOFI,2007SR,026,27,2007_026u,18-Jul-2020 15:41:52,18-Jul-2020 07:41:52,32.91900,-118.93508,090.0 045.0,090.0,045.0,466.000,469.839,,6.4763,,6.4762,,6.4763,34.2868,,34.2870,34.2880,,34.2896,34.2883,0.3853,,0.3849,0.4125,1.8066,,0.3717,0.3900,0.4013,16.756,17.0035,32.0005,78.565,,32.2304,32.1155,0.0315,,,,-99.0,,-99.0,,26.9331,,26.9341,,0.6325,85.3743,,7.541,,8.2861E+02,,1.0000E-12,,6.4338,6.4337,0.8608,,5.612,26.315,,,,,,,,,,,,
CalCOFI,2007SR,026,27,2007_026u,18-Jul-2020 15:41:53,18-Jul-2020 07:41:53,32.91900,-118.93507,090.0 045.0,090.0,045.0,465.000,468.829,,6.4803,,6.4808,,6.4806,34.2871,,34.2873,34.2885,,34.2901,34.2887,0.3907,,0.3905,0.4180,1.8061,,0.3705,0.3885,0.4033,16.991,17.2488,32.1833,78.545,,32.1870,32.1852,0.0328,,,,-99.0,,-99.0,,26.9329,,26.9338,,0.6331,85.3618,,7.542,,8.2836E+02,,1.0000E-12,,6.4379,6.4384,0.8608,,5.692,26.311,,,,,,,,,,,,
CalCOFI,2007SR,026,27,2007_026u,18-Jul-2020 15:41:53,18-Jul-2020 07:41:53,32.91900,-118.93506,090.0 045.0,090.0,045.0,464.000,467.820,,6.4918,,6.4916,,6.4917,34.2867,,34.2869,34.2882,,34.2898,34.2884,0.3933,,0.3933,0.4206,1.8054,,0.3688,0.3865,0.4036,17.102,17.3647,32.2697,78.513,,32.1177,32.1937,0.0329,,,,-99.0,,-99.0,,26.9310,,26.9322,,0.6331,85.3620,,7.542,,8.2836E+02,,1.0000E-12,,6.4494,6.4492,0.8608,,5.730,26.307,,,,,,,,,,,,
CalCOFI,2007SR,026,27,2007_026u,18-Jul-2020 15:41:54,18-Jul-2020 07:41:54,32.91900,-118.93506,090.0 045.0,090.0,045.0,463.000,466.811,,6.4990,,6.4995,,6.4993,34.2858,,34.2860,34.2872,,34.2888,34.2874,0.3970,,0.3971,0.4244,1.8048,,0.3674,0.3847,0.4046,17.267,17.5369,32.3981,78.488,,32.0635,32.2308,0.0317,,,,-99.0,,-99.0,,26.9294,,26.9304,,0.6331,85.3620,,7.542,,8.2836E+02,,1.0000E-12,,6.4567,6.4572,0.8608,,5.787,26.303,,,,,,,,,,,,